This demonstration page uses our WeatherBlox Daily Observations layout. Learn more.

39.29038, -76.61219

Hourly Observations for July 4, 2015

Temp ( °F °C ) Dew Point ( °F °C ) Humidity (%) Winds ( mph kmh ) Pressure ( in mb ) Visibility ( mi km ) Precip ( " mm )
12:54 am 00:54 undefined 74 23.3 63 17.2 69 69 undefined N/A 29.93 1013 N/A 0 0
1:54 am 01:54 Cloudy 65 18.3 58 14.4 78 78 undefined N/A 29.79 1009 N/A 0 0
2:54 am 02:54 undefined 73 22.8 66 18.9 79 79 undefined N/A 29.92 1013 N/A 0 0
3:54 am 03:54 Cloudy 77 25 48 8.9 36 36 undefined N/A 29.8 1009 N/A 0 0
4:54 am 04:54 undefined 72 22.2 66 18.9 82 82 undefined N/A 29.89 1012 N/A 0 0
5:54 am 05:54 Sunny 78 25.5 75 23.8 90 90 undefined N/A 30.8 1043 N/A 0 0
6:54 am 06:54 Mostly Cloudy 72 22.2 67 19.4 84 84 undefined N/A 29.89 1012 N/A 0 0
7:54 am 07:54 Cloudy 80 26.4 73 22.6 80 80 undefined N/A 29.91 1013 N/A 0 0
8:54 am 08:54 Mostly Sunny 77 25 74 23.3 90 90 undefined N/A 30.77 1042 N/A 0 0
9:54 am 09:54 undefined 73 22.8 69 20.6 87 87 undefined N/A 29.91 1013 N/A 0.01 0.254
10:54 am 10:54 undefined 72 22.2 69 20.6 91 91 undefined N/A 29.91 1013 N/A 0.08 2.032
11:54 am 11:54 undefined 70 21.1 67 19.4 90 90 undefined N/A 29.93 1013 N/A 0.04 1.016
12:54 pm 12:54 undefined 73 22.8 68 20 84 84 undefined N/A 29.95 1014 N/A 0 0
1:54 pm 13:54 undefined 74 23.3 69 20.6 85 85 undefined N/A 29.94 1014 N/A 0 0
2:54 pm 14:54 undefined 74 23.3 68 20 82 82 undefined N/A 29.92 1013 N/A 0 0
3:54 pm 15:54 undefined 73 22.8 67 19.4 81 81 undefined N/A 29.91 1013 N/A 0 0
4:54 pm 16:54 Cloudy 74 23.3 67 19.4 79 79 undefined N/A 29.92 1013 N/A 0 0
5:54 pm 17:54 undefined 74 23.3 67 19.4 79 79 undefined N/A 29.93 1014 N/A 0 0
6:54 pm 18:54 undefined 75 23.9 67 19.4 76 76 undefined N/A 29.95 1014 N/A 0 0
7:54 pm 19:54 undefined 75 23.9 67 19.4 76 76 undefined N/A 29.96 1015 N/A 0 0
8:54 pm 20:54 Mostly Clear 74 23.3 67 19.4 79 79 undefined N/A 29.96 1015 N/A 0 0
9:54 pm 21:54 undefined 74 23.3 66 18.9 76 76 undefined N/A 30 1016 N/A 0 0
10:54 pm 22:54 undefined 73 22.8 66 18.9 79 79 undefined N/A 30.01 1016 N/A 0 0
11:54 pm 23:54 undefined 72 22.2 66 18.9 82 82 undefined N/A 30.03 1017 N/A 0 0

Powered by AerisWeather